map of REY home
REY - Airport
Location
City:  Reyes, José Ballivián, El Beni, Bolivia
Name:Reyes Airport
ICAO:SLRY
IATA:REY

Details
Type:Airport (Aerodrome, Airfield)
Latitude:14°18'21"S (-14.305832)
Longitude:67°21'13"W (-67.353610)
Elevation:935 ft (285 m)
Variation:9.52°W (WMM2015v2 magnetic declination)
-0.20° annual change
Runways:1
Longest:4593 ft (1400 m)

Time
Time Zone:UTC-4
Local Time:

Weather
METAR:SLRY 041400Z 00000KT 9999 FEW016 BKN080 28/24 Q1013

Related Locations
Nearby:
Farthest:ZJYX: 12255 mi / 19723 km
Yongxing Island [Yongxing Island Airport], Xisha Islands (Woody Island, Paracel Islands), 46, CN

Find:

   beyond  
but within

Other Information
Maps:
NOTAMs:
Links:
Sources:

  
  • flag of Bolivia
  • flag of El Beni
  

Sectional Chart

Flight Planning
at skyvector.com

Satellite Image

Google Maps Satellite view

 

Copyright © 2004-2019 Karl L. Swartz. All rights reserved.
The Great Circle Mapper name and logo are trademarks of the Great Circle Mapper.
All other trademarks mentioned herein belong to their respective owners.
Please see credits for attibutions and further copyright information.

  Follow gcmap on Facebook Follow gcmap on Twitter GCmap on LinkedIn

hCard Microformat

Geo Microformat